Погода в Дябрине

Россия / Архангельская область     61°34′54″N   45°57′44″E
В апреле 2022 года жителям России запретили посещать сайт meteo.paraplan.net по решению Генеральной прокуратуры. Аудитория сайта уменьшилась в 10 раз. Владельцы сайта не видят смысла в поддержке погодного сервера в таких условиях. Сайт будет закрыт в октябре.
темп.,
°C
ветер,
м/с
пор.,
м/с
влажн.,
%
обл.,
%
осадки,
мм/ч
давл.,
гПа
погр.,
м
30 сентября, пт
пт3000:00+1юв41097100 0.7 1019670
03:00+1юв3996100 1.1 1019532
06:00+2юв3996100 0.0 1020479
09:00+3ююв3995100 0.0 1020391
12:00+7ююв498792 0.0 1020462
15:00+7ююв41189100 0.0 1020541
18:00+7ююв41394100 0.1 1020530
21:00+6ююв51396100 0.2 1019556
1 октября, сб
сб100:00+7ююв51396100 0.3 1017497
03:00+8ю41296100 1.6 1016606
06:00+8ю31097100 1.7 1016479
09:00+9ю2798100 1.9 1016375
12:00+11юз2485100 0.0 1016612
15:00+12юз137522 0.0 1016737
18:00+8ююв1192100 0.0 101611
21:00+7ю1196100 0.0 101511
2 октября, вс
вс200:00+7всв1198100 0.0 101310
03:00+8св25100100 0.0 1011189
06:00+8всв2499100 0.3 1010207
09:00+9в2699100 3.0 1008292
12:00+9в3898100 1.6 1005343
15:00+10в3999100 5.9 1003449
18:00+10ю1699100 5.1 1001301
21:00+10зюз2698100 8.9 1002325
3 октября, пн
пн300:00+8зсз2498100 2.3 1004357
03:00+7сз3797100 2.4 1007430
06:00+7сз2596100 0.0 1010393
09:00+7с2394100 0.0 1012330
12:00+8св239099 0.0 1013460
15:00+9всв3693100 0.6 1013489
18:00+8в41096100 1.6 1013490
21:00+9в51296100 2.6 1011536
4 октября, вт
вт400:00+10вюв41297100 0.0 1010448
03:00+12ююв41291100 0.1 1010790
06:00+12ююв41191100 0.1 1011794
09:00+12ююв51288100 0.1 1013769
12:00+12ююв51186100 0.1 1014732
15:00+12ююв5118698 0.1 1015816
18:00+11ююв51187100 0.0 1016998
21:00+10ю4987100 0.3 1017811